When you browse on this site, cookies collect data to enhance your experience and personalize the content and advertising you see.
Visit our Privacy Policy to learn more. By continuing to use the site, you agree to this use of cookies and data.
  • In Sweden
  • List of Countries
  • For 7 days
  • Water Temperature
  • Satellite Maps
  • Weather Map
  • Weather Widgets
  • user-avatar
    Login

    Hourly Weather Lampeter

    Today, 21 March, Thursday

    Time Temperature Precipitation Wind Pressure Humidity
    00:00 +11°C° 0 mm 8 mps 762 mmHg 86%
    01:00 +10°C° 0 mm 8 mps 763 mmHg 86%
    02:00 +10°C° 0 mm 8 mps 763 mmHg 86%
    03:00 +10°C° 0 mm 7 mps 763 mmHg 87%
    04:00 +10°C° 0 mm 7 mps 763 mmHg 87%
    05:00 +10°C° 0 mm 7 mps 763 mmHg 88%
    06:00 +9°C° 0 mm 7 mps 764 mmHg 88%
    07:00 +10°C° 0 mm 6 mps 764 mmHg 88%
    08:00 +10°C° 0 mm 6 mps 765 mmHg 87%
    09:00 +11°C° 0 mm 6 mps 765 mmHg 86%
    10:00 +11°C° 0 mm 6 mps 765 mmHg 86%
    11:00 +12°C° 0 mm 5 mps 765 mmHg 85%
    12:00 +12°C° 0 mm 5 mps 766 mmHg 84%
    13:00 +13°C° 0 mm 5 mps 765 mmHg 82%
    14:00 +14°C° 0 mm 5 mps 765 mmHg 80%
    15:00 +14°C° 0 mm 5 mps 765 mmHg 78%
    16:00 +13°C° 0 mm 5 mps 765 mmHg 81%
    17:00 +13°C° 0 mm 4 mps 765 mmHg 83%
    18:00 +12°C° 0 mm 4 mps 765 mmHg 85%
    19:00 +12°C° 0 mm 4 mps 764 mmHg 85%
    20:00 +11°C° 0 mm 4 mps 764 mmHg 86%
    21:00 +11°C° 0 mm 4 mps 764 mmHg 86%
    22:00 +10°C° 0 mm 5 mps 763 mmHg 87%
    23:00 +9°C° 0 mm 5 mps 763 mmHg 88%

    Tomorrow, 22 March, Friday

    Time Temperature Precipitation Wind Pressure Humidity
    00:00 +9°C° 0 mm 5 mps 762 mmHg 88%
    01:00 +9°C° 0 mm 6 mps 761 mmHg 86%
    02:00 +9°C° 0 mm 6 mps 760 mmHg 84%
    03:00 +10°C° 0 mm 7 mps 760 mmHg 82%
    04:00 +10°C° 0 mm 8 mps 759 mmHg 81%
    05:00 +10°C° 0 mm 8 mps 758 mmHg 80%
    06:00 +10°C° 0 mm 9 mps 758 mmHg 79%
    07:00 +10°C° 0 mm 9 mps 757 mmHg 78%
    08:00 +9°C° 0 mm 10 mps 757 mmHg 77%
    09:00 +9°C° 0 mm 10 mps 756 mmHg 76%
    10:00 +9°C° 0.1 mm 10 mps 756 mmHg 78%
    11:00 +9°C° 0.1 mm 10 mps 756 mmHg 80%
    12:00 +10°C° 0.1 mm 9 mps 756 mmHg 81%
    13:00 +8°C° 0.3 mm 9 mps 757 mmHg 78%
    14:00 +8°C° 0.3 mm 9 mps 757 mmHg 75%
    15:00 +8°C° 0.3 mm 9 mps 757 mmHg 72%
    16:00 +7°C° 0 mm 8 mps 758 mmHg 70%
    17:00 +6°C° 0 mm 8 mps 759 mmHg 69%
    18:00 +5°C° 0 mm 8 mps 760 mmHg 68%
    19:00 +4°C° 0 mm 7 mps 761 mmHg 70%
    20:00 +3°C° 0 mm 7 mps 761 mmHg 72%
    21:00 +3°C° 0 mm 6 mps 762 mmHg 75%
    22:00 +2°C° 0 mm 6 mps 763 mmHg 74%
    23:00 +2°C° 0 mm 6 mps 763 mmHg 73%

    Day after tomorrow, 23 March, Saturday

    Time Temperature Precipitation Wind Pressure Humidity
    00:00 +2°C° 0 mm 6 mps 764 mmHg 71%
    01:00 +1°C° 0 mm 6 mps 764 mmHg 72%
    02:00 +1°C° 0 mm 6 mps 765 mmHg 72%
    03:00 +1°C° 0 mm 5 mps 765 mmHg 72%
    04:00 0°C° 0 mm 5 mps 765 mmHg 73%
    05:00 0°C° 0 mm 5 mps 766 mmHg 74%
    06:00 0°C° 0 mm 4 mps 766 mmHg 75%
    07:00 +1°C° 0 mm 4 mps 767 mmHg 71%
    08:00 +2°C° 0 mm 5 mps 767 mmHg 68%
    09:00 +5°C° 0 mm 5 mps 768 mmHg 64%
    10:00 +6°C° 0 mm 5 mps 768 mmHg 61%
    11:00 +6°C° 0 mm 5 mps 768 mmHg 58%
    12:00 +7°C° 0 mm 5 mps 768 mmHg 54%
    13:00 +7°C° 0 mm 5 mps 768 mmHg 54%
    14:00 +7°C° 0 mm 5 mps 768 mmHg 54%
    15:00 +7°C° 0 mm 5 mps 768 mmHg 55%
    16:00 +7°C° 0 mm 4 mps 768 mmHg 58%
    17:00 +6°C° 0 mm 4 mps 768 mmHg 62%
    18:00 +5°C° 0 mm 3 mps 768 mmHg 66%
    19:00 +4°C° 0 mm 3 mps 768 mmHg 70%
    20:00 +3°C° 0 mm 3 mps 768 mmHg 73%
    21:00 +3°C° 0 mm 3 mps 768 mmHg 77%
    22:00 +3°C° 0 mm 3 mps 768 mmHg 78%
    23:00 +3°C° 0 mm 3 mps 768 mmHg 78%

    24 March, Sunday

    Time Temperature Precipitation Wind Pressure Humidity
    00:00 +2°C° 0 mm 3 mps 767 mmHg 79%
    01:00 +1°C° 0 mm 4 mps 767 mmHg 81%
    02:00 +1°C° 0 mm 4 mps 767 mmHg 83%
    03:00 +1°C° 0 mm 4 mps 766 mmHg 84%
    04:00 +1°C° 0 mm 4 mps 766 mmHg 85%
    05:00 +1°C° 0 mm 5 mps 766 mmHg 86%
    06:00 0°C° 0 mm 5 mps 765 mmHg 87%
    07:00 +2°C° 0 mm 6 mps 765 mmHg 82%
    08:00 +3°C° 0 mm 7 mps 765 mmHg 76%
    09:00 +4°C° 0 mm 8 mps 765 mmHg 71%
    10:00 +5°C° 0 mm 8 mps 765 mmHg 69%
    11:00 +5°C° 0 mm 9 mps 765 mmHg 68%
    12:00 +6°C° 0 mm 9 mps 764 mmHg 67%
    13:00 +6°C° 0.1 mm 9 mps 764 mmHg 67%
    14:00 +6°C° 0.1 mm 9 mps 764 mmHg 67%
    15:00 +7°C° 0.1 mm 9 mps 764 mmHg 68%
    16:00 +6°C° 0.1 mm 8 mps 764 mmHg 70%
    17:00 +6°C° 0.1 mm 8 mps 764 mmHg 73%
    18:00 +5°C° 0.1 mm 7 mps 764 mmHg 75%
    19:00 +5°C° 0 mm 7 mps 765 mmHg 77%
    20:00 +4°C° 0 mm 7 mps 765 mmHg 80%
    21:00 +4°C° 0 mm 6 mps 765 mmHg 82%
    22:00 +4°C° 0 mm 6 mps 765 mmHg 82%
    23:00 +4°C° 0 mm 6 mps 766 mmHg 82%

    25 March, Monday

    Time Temperature Precipitation Wind Pressure Humidity
    00:00 +4°C° 0 mm 6 mps 766 mmHg 83%
    01:00 +4°C° 0 mm 6 mps 766 mmHg 84%
    02:00 +3°C° 0 mm 6 mps 766 mmHg 85%
    03:00 +3°C° 0 mm 6 mps 767 mmHg 86%
    04:00 +3°C° 0 mm 5 mps 767 mmHg 88%
    05:00 +3°C° 0 mm 5 mps 767 mmHg 89%
    06:00 +4°C° 0 mm 4 mps 768 mmHg 91%
    07:00 +5°C° 0 mm 4 mps 768 mmHg 85%
    08:00 +6°C° 0 mm 4 mps 769 mmHg 79%
    09:00 +7°C° 0 mm 4 mps 769 mmHg 73%
    10:00 +7°C° 0 mm 4 mps 770 mmHg 71%
    11:00 +8°C° 0 mm 5 mps 770 mmHg 69%
    12:00 +9°C° 0 mm 5 mps 770 mmHg 66%
    13:00 +10°C° 0 mm 4 mps 770 mmHg 64%
    14:00 +11°C° 0 mm 4 mps 770 mmHg 62%
    15:00 +11°C° 0 mm 4 mps 770 mmHg 60%
    16:00 +10°C° 0 mm 3 mps 770 mmHg 65%
    17:00 +10°C° 0 mm 3 mps 770 mmHg 70%
    18:00 +9°C° 0 mm 2 mps 770 mmHg 74%
    19:00 +8°C° 0 mm 2 mps 771 mmHg 79%
    20:00 +7°C° 0 mm 3 mps 771 mmHg 84%
    21:00 +4°C° 0 mm 3 mps 771 mmHg 89%
    22:00 +4°C° 0 mm 3 mps 771 mmHg 90%
    23:00 +4°C° 0 mm 3 mps 771 mmHg 91%

    26 March, Tuesday

    Time Temperature Precipitation Wind Pressure Humidity
    00:00 +3°C° 0 mm 3 mps 771 mmHg 92%
    01:00 +3°C° 0 mm 3 mps 771 mmHg 93%
    02:00 +3°C° 0 mm 3 mps 771 mmHg 94%
    03:00 +2°C° 0 mm 3 mps 771 mmHg 94%
    04:00 +2°C° 0 mm 3 mps 771 mmHg 95%
    05:00 +2°C° 0 mm 3 mps 771 mmHg 95%
    06:00 +2°C° 0 mm 3 mps 771 mmHg 95%
    07:00 +3°C° 0 mm 3 mps 771 mmHg 90%
    08:00 +5°C° 0 mm 4 mps 771 mmHg 86%
    09:00 +6°C° 0 mm 4 mps 771 mmHg 81%
    10:00 +7°C° 0 mm 4 mps 771 mmHg 76%
    11:00 +9°C° 0 mm 5 mps 771 mmHg 72%
    12:00 +10°C° 0 mm 5 mps 771 mmHg 67%
    13:00 +10°C° 0 mm 6 mps 770 mmHg 66%
    14:00 +10°C° 0 mm 6 mps 770 mmHg 64%
    15:00 +11°C° 0 mm 6 mps 770 mmHg 63%
    16:00 +10°C° 0 mm 6 mps 770 mmHg 66%
    17:00 +9°C° 0 mm 5 mps 770 mmHg 70%
    18:00 +8°C° 0 mm 5 mps 770 mmHg 74%
    19:00 +7°C° 0 mm 5 mps 770 mmHg 78%
    20:00 +6°C° 0 mm 4 mps 770 mmHg 81%
    21:00 +6°C° 0 mm 4 mps 770 mmHg 85%
    22:00 +5°C° 0 mm 5 mps 770 mmHg 87%
    23:00 +5°C° 0 mm 5 mps 770 mmHg 89%
    Show more